La Grange, TX

6:42 PM CST on November 21, 2019 (GMT -0600)
La Grange

Weather History for K3T5 - August, 2019

Change the Weather History Date:

Friday, August 2, 2019

  Actual Average (KAUS) Record (KAUS)
Temperature  
Mean Temperature 86 °F -  
Max Temperature 97 °F 95 °F 106 °F (2011)
Min Temperature 74 °F 71 °F 62 °F (2018)
Cooling Degree Days 20    
Growing Degree Days 36 (Base 50)    
Moisture  
Dew Point 74 °F    
Average Humidity 69    
Maximum Humidity 100    
Minimum Humidity 41    
Precipitation  
Precipitation 0.00 in - - ()
Sea Level Pressure  
Sea Level Pressure 29.96 in    
Wind  
Wind Speed 0 mph (SE)    
Max Wind Speed 4 mph    
Max Gust Speed -    
Visibility 10 miles    
Events      
Averages and records for this station are not official NWS values.
T = Trace of Precipitation, MM = Missing Value Source: NWS Daily Summary

Daily Weather History Graph

Daily Weather History Graph

Search for Another Location

Airport or City:

Astronomy

Aug. 02, 2019 Rise Set
Actual Time 6:47 AM CDT 8:20 PM CDT
Civil Twilight 6:21 AM CDT 8:46 PM CDT
Nautical Twilight 5:50 AM CDT 9:16 PM CDT
Astronomical Twilight 5:18 AM CDT 9:49 PM CDT
Moon 8:24 AM CDT (8/2) 9:56 PM CDT (8/2)
Length of Visible Light 14h 24m
Length of Day
13h 32m
Waxing Crescent, 4% of the Moon is Illuminated
Aug 2
Waxing Crescent
Aug 7
First Quarter
Aug 15
Full
Aug 23
Last Quarter
Aug 30
New

Hourly Weather History & Observations

Time (CDT) Temp. Heat Index Dew Point Humidity Pressure Visibility Wind Dir Wind Speed Gust Speed Precip Events Conditions
12:15 AM 81.5 °F 88.0 °F 75.4 °F 82% 29.99 in 10.0 mi Calm Calm - N/A   Clear
12:35 AM 81.0 °F 87.1 °F 75.6 °F 84% 29.99 in 10.0 mi Calm Calm - N/A   Clear
12:55 AM 80.6 °F 86.4 °F 75.6 °F 85% 29.99 in 10.0 mi Calm Calm - N/A   Clear
1:15 AM 79.9 °F - 75.7 °F 87% 29.99 in 10.0 mi Calm Calm - N/A   Clear
1:35 AM 79.2 °F - 75.9 °F 90% 29.99 in 10.0 mi Calm Calm - N/A   Clear
1:55 AM 79.0 °F - 76.1 °F 91% 29.99 in 10.0 mi Calm Calm - N/A   Clear
2:15 AM 78.1 °F - 76.8 °F 96% 29.99 in 10.0 mi Calm Calm - N/A   Clear
2:35 AM 77.2 °F - 76.3 °F 97% 29.99 in 10.0 mi Calm Calm - N/A   Clear
2:55 AM 77.0 °F - 77.0 °F 100% 29.99 in 10.0 mi Calm Calm - N/A   Clear
3:15 AM 76.3 °F - 76.3 °F 100% 29.99 in 10.0 mi Calm Calm - N/A   Clear
3:35 AM 76.3 °F - 76.3 °F 100% 29.98 in 10.0 mi Calm Calm - N/A   Clear
3:55 AM 76.1 °F - 76.1 °F 100% 29.98 in 10.0 mi Calm Calm - N/A   Clear
4:15 AM 76.3 °F - 76.3 °F 100% 29.98 in 10.0 mi Calm Calm - N/A   Clear
4:55 AM 75.6 °F - 75.6 °F 100% 29.98 in 10.0 mi Calm Calm - N/A   Clear
5:15 AM 75.6 °F - 75.6 °F 100% 29.98 in 10.0 mi Calm Calm - N/A   Clear
5:35 AM 75.2 °F - 75.2 °F 100% 29.99 in 10.0 mi Calm Calm - N/A   Clear
5:55 AM 74.8 °F - 74.8 °F 100% 29.99 in 10.0 mi Calm Calm - N/A   Clear
6:15 AM 75.0 °F - 75.0 °F 100% 29.99 in 10.0 mi Calm Calm - N/A   Clear
6:35 AM 75.2 °F - 75.2 °F 100% 29.98 in 10.0 mi Calm Calm - N/A   Clear
6:55 AM 74.3 °F - 74.3 °F 100% 29.98 in 10.0 mi Calm Calm - N/A   Clear
7:55 AM 77.7 °F - 77.7 °F 100% 29.99 in 10.0 mi Calm Calm - N/A   Clear
8:15 AM 79.2 °F - 78.4 °F 98% 30.00 in 10.0 mi Calm Calm - N/A   Clear
8:35 AM 80.8 °F 88.0 °F 77.9 °F 91% 30.01 in 10.0 mi Calm Calm - N/A   Clear
8:55 AM 82.4 °F 91.5 °F 77.7 °F 86% 30.01 in 10.0 mi Calm Calm - N/A   Clear
9:15 AM 82.9 °F 92.4 °F 77.5 °F 84% 30.00 in 10.0 mi SSW 3.5 mph - N/A   Clear
9:35 AM 84.0 °F 94.4 °F 77.7 °F 81% 30.00 in 10.0 mi Calm Calm - N/A   Clear
9:55 AM 84.9 °F 93.7 °F 75.6 °F 73% 30.01 in 10.0 mi Calm Calm - N/A   Scattered Clouds
10:15 AM 86.7 °F 95.5 °F 74.7 °F 67% 30.00 in 10.0 mi Calm Calm - N/A   Clear
10:35 AM 86.9 °F 95.0 °F 73.8 °F 65% 30.00 in 10.0 mi Calm Calm - N/A   Clear
10:55 AM 88.2 °F 96.0 °F 73.0 °F 61% 30.00 in 10.0 mi Calm Calm - N/A   Clear
11:15 AM 89.1 °F 98.5 °F 74.3 °F 62% 30.00 in 10.0 mi Calm Calm - N/A   Clear
11:35 AM 90.1 °F 98.9 °F 73.6 °F 58% 30.00 in 10.0 mi Calm Calm - N/A   Clear
11:55 AM 90.7 °F 99.0 °F 72.9 °F 56% 29.99 in 10.0 mi Calm Calm - N/A   Clear
12:15 PM 93.0 °F 101.3 °F 72.7 °F 51% 29.99 in 7.0 mi Calm Calm - N/A   Scattered Clouds
12:35 PM 91.6 °F 98.8 °F 72.0 °F 52% 29.99 in 5.0 mi Calm Calm - N/A   Haze
12:55 PM 92.1 °F 98.8 °F 71.2 °F 50% 29.98 in 10.0 mi South 3.5 mph - N/A   Mostly Cloudy
1:15 PM 94.1 °F 102.5 °F 72.1 °F 49% 29.97 in 10.0 mi Calm Calm - N/A   Mostly Cloudy
1:35 PM 94.6 °F 103.0 °F 72.1 °F 48% 29.97 in 10.0 mi SSE 3.5 mph - N/A   Scattered Clouds
1:55 PM 93.7 °F 101.1 °F 71.1 °F 48% 29.96 in 10.0 mi Calm Calm - N/A   Scattered Clouds
2:15 PM 94.1 °F 101.2 °F 71.2 °F 47% 29.96 in 10.0 mi Calm Calm - N/A   Scattered Clouds
2:35 PM 94.3 °F 101.0 °F 70.7 °F 46% 29.95 in 10.0 mi Calm Calm - N/A   Mostly Cloudy
2:55 PM 95.2 °F 102.3 °F 70.7 °F 45% 29.94 in 10.0 mi Calm Calm - N/A   Scattered Clouds
3:15 PM 96.4 °F 103.7 °F 70.9 °F 43% 29.93 in 10.0 mi Calm Calm - N/A   Scattered Clouds
3:35 PM 96.1 °F 102.9 °F 70.5 °F 43% 29.93 in 10.0 mi ESE 3.5 mph - N/A   Scattered Clouds
3:55 PM 96.8 °F 103.8 °F 70.3 °F 42% 29.92 in 10.0 mi Calm Calm - N/A   Scattered Clouds
4:15 PM 96.8 °F 103.1 °F 69.6 °F 41% 29.92 in 10.0 mi Calm Calm - N/A   Scattered Clouds
4:35 PM 97.2 °F 104.5 °F 70.3 °F 42% 29.91 in 10.0 mi East 3.5 mph - N/A   Scattered Clouds
4:55 PM 97.0 °F 104.1 °F 70.2 °F 42% 29.90 in 10.0 mi SE 3.5 mph - N/A   Clear
5:15 PM 96.8 °F 103.1 °F 69.8 °F 41% 29.90 in 10.0 mi Calm Calm - N/A   Mostly Cloudy
5:35 PM 96.6 °F 103.4 °F 69.8 °F 42% 29.90 in 10.0 mi Calm Calm - N/A   Mostly Cloudy
5:55 PM 96.3 °F 102.6 °F 69.6 °F 42% 29.90 in 10.0 mi Calm Calm - N/A   Scattered Clouds
6:35 PM 95.7 °F 101.5 °F 69.4 °F 42% 29.90 in 10.0 mi Calm Calm - N/A   Clear
6:55 PM 96.1 °F 102.9 °F 70.0 °F 43% 29.89 in 10.0 mi ESE 3.5 mph - N/A   Clear
7:15 PM 95.4 °F 101.4 °F 69.8 °F 43% 29.89 in 10.0 mi Calm Calm - N/A   Clear
7:35 PM 94.1 °F 100.6 °F 70.3 °F 46% 29.89 in 10.0 mi Calm Calm - N/A   Clear
7:55 PM 92.7 °F 99.4 °F 70.7 °F 49% 29.89 in 10.0 mi Calm Calm - N/A   Clear
8:15 PM 91.4 °F 97.8 °F 71.2 °F 51% 29.89 in 7.0 mi Calm Calm - N/A   Clear
8:35 PM 90.3 °F 97.2 °F 71.6 °F 54% 29.90 in 10.0 mi Calm Calm - N/A   Clear
8:55 PM 88.9 °F 95.6 °F 72.0 °F 57% 29.90 in 10.0 mi Calm Calm - N/A   Clear
9:15 PM 87.4 °F 94.4 °F 72.3 °F 61% 29.90 in 10.0 mi Calm Calm - N/A   Clear
9:35 PM 86.7 °F 93.7 °F 72.9 °F 63% 29.91 in 10.0 mi Calm Calm - N/A   Clear
9:55 PM 86.2 °F 93.0 °F 72.7 °F 64% 29.91 in 10.0 mi Calm Calm - N/A   Clear
10:15 PM 85.5 °F 92.2 °F 73.0 °F 66% 29.92 in 10.0 mi Calm Calm - N/A   Clear
10:35 PM 85.1 °F 92.2 °F 73.6 °F 68% 29.93 in 10.0 mi Calm Calm - N/A   Clear
10:55 PM 84.2 °F 90.3 °F 72.5 °F 68% 29.93 in 10.0 mi Calm Calm - N/A   Clear
11:15 PM 84.0 °F 90.5 °F 73.4 °F 70% 29.93 in 10.0 mi Calm Calm - N/A   Clear
11:35 PM 83.3 °F 89.9 °F 73.8 °F 73% 29.94 in 10.0 mi Calm Calm - N/A   Clear
11:55 PM 82.6 °F 89.4 °F 74.7 °F 77% 29.94 in 10.0 mi Calm Calm - N/A   Clear